Wind_Speed
2 1 3 4 2 4 9 8 11 2 1 6 1 4 5 16 4 4 19 14 21 16 16 15 13 12 10 7 6 6 5 4 2 2 2 2 4 4 5 6 5 5 5 5 6 6 6 6 6
3 4 3 6 4 8 8 13 14 7 5 5 1 3 5 5 9 19 20 18 19 17 18 17 14 12 11 9 7 6 4 2 0 2 3 4 5 6 5 4 5 5 5 5 6 7 6 6 6
4 3 5 4 5 13 7 11 12 8 12 11 4 3 5 6 16 25 20 21 21 20 19 19 16 13 10 9 6 4 3 1 2 4 5 6 6 7 7 7 6 6 6 6 5 6 7 8 7
3 3 7 6 14 13 16 11 7 11 10 14 11 7 8 1 18 23 24 23 22 21 19 18 15 13 10 8 5 3 2 3 4 6 7 8 8 8 9 9 9 9 9 9 9 10 10 9 9
5 7 5 9 16 16 14 29 4 5 15 14 18 7 9 11 12 26 24 24 22 21 18 18 14 11 9 6 4 2 3 4 6 7 7 8 9 9 9 9 9 9 9 10 10 11 11 11 11
9 6 7 14 15 16 18 26 7 9 17 12 12 13 7 12 16 30 23 17 17 19 18 16 14 10 7 5 3 3 4 5 5 5 6 7 8 8 9 9 9 9 9 9 10 10 10 10 10
11 8 13 15 12 20 18 34 7 8 11 17 9 8 13 17 27 29 25 24 22 18 17 16 12 9 7 4 3 3 3 3 4 5 6 6 7 8 8 8 9 9 9 9 9 9 9 8 8
18 7 15 16 15 18 21 31 28 13 12 15 17 7 8 24 35 32 26 27 24 17 15 14 12 10 7 4 3 2 2 3 4 5 5 6 7 8 7 9 8 8 8 7 7 7 7 7 6
17 9 13 17 17 13 28 13 28 12 12 6 11 6 7 30 38 32 28 25 24 19 16 14 12 9 5 4 3 1 1 2 3 4 5 6 6 7 9 7 6 6 6 5 5 6 5 5 6
11 8 17 13 17 15 26 25 21 6 6 4 12 11 23 38 41 35 28 25 22 20 17 14 11 9 6 5 3 1 1 3 4 5 5 6 7 5 6 6 5 4 4 4 5 7 4 1 1
13 18 14 18 30 28 20 20 20 14 8 14 18 30 29 40 38 33 26 23 22 20 17 15 12 9 8 5 4 2 1 3 4 5 5 5 5 4 3 5 6 5 4 4 3 4 7 5 3
16 22 24 27 31 22 9 18 15 13 12 14 23 29 30 41 39 34 27 25 24 22 18 15 12 11 9 7 5 3 1 2 5 5 5 4 3 2 2 2 3 3 2 3 2 1 3 3 4
17 21 25 25 35 28 25 15 15 28 21 13 32 33 29 38 31 28 25 25 23 22 19 15 13 11 9 7 5 3 1 3 4 5 4 3 3 1 1 1 2 3 3 4 4 4 3 3 1
12 18 21 26 30 24 22 18 16 22 15 9 32 32 30 33 31 28 26 27 25 22 19 16 14 11 9 7 5 3 0 2 4 4 4 3 2 1 1 2 2 3 4 3 4 4 4 2 4
14 13 13 18 20 19 25 17 13 26 10 26 26 29 29 29 29 30 27 25 24 21 19 16 13 11 9 6 4 2 1 2 4 4 4 3 3 2 2 3 4 4 4 4 4 3 3 5 7
1 3 6 10 15 24 21 17 9 23 15 22 24 27 29 29 29 25 23 23 22 22 19 16 14 11 9 6 4 2 1 2 4 4 5 4 3 2 3 4 4 4 4 4 4 3 2 6 7
3 5 8 13 19 11 19 14 20 22 22 21 26 28 30 30 27 25 23 24 21 20 19 16 14 11 9 6 4 2 2 3 3 4 4 4 3 3 3 4 4 4 4 4 5 3 3 6 7
6 6 8 12 6 21 23 19 19 28 28 25 26 29 31 32 29 27 24 23 21 19 17 16 14 11 8 6 3 2 2 2 4 4 4 4 3 3 3 3 4 5 5 5 5 5 4 5 6
10 11 13 14 12 14 27 21 11 14 19 23 26 28 28 30 28 27 24 25 22 20 18 15 14 11 8 6 4 2 2 3 4 4 4 4 3 3 4 4 4 5 5 6 6 6 6 6 7
14 16 20 17 16 15 24 20 13 11 14 23 26 28 30 31 30 28 27 26 25 21 17 16 13 10 9 6 5 3 3 4 6 5 4 3 3 4 4 5 5 5 6 6 6 7 7 7 7
13 15 14 13 15 24 18 18 13 10 15 23 27 29 30 34 33 32 29 26 24 20 18 17 14 11 10 6 4 3 5 4 4 3 3 4 5 5 6 6 7 7 7 7 8 8 8 8 9
9 17 22 15 16 7 14 6 10 11 10 10 23 30 32 33 29 30 29 26 24 21 18 16 15 12 10 6 5 4 5 5 4 5 5 5 6 6 7 7 8 9 9 9 10 9 10 10 10
9 5 12 14 12 6 10 5 9 13 12 12 11 27 32 32 32 30 30 26 23 21 19 17 15 14 11 8 5 5 6 5 5 5 5 7 8 7 8 8 9 10 10 11 11 11 11 12 12
13 6 3 3 7 6 8 11 12 16 20 11 12 25 30 31 29 26 25 24 23 21 20 18 17 16 13 10 8 7 7 7 6 6 7 8 9 9 9 9 10 11 12 13 13 13 13 13 14
12 9 2 3 1 4 6 11 6 16 20 17 16 24 28 32 29 27 26 26 23 23 21 20 19 17 14 12 10 9 8 7 7 8 8 8 8 10 12 12 11 11 12 13 14 14 15 16 17
6 3 1 2 4 3 5 6 3 4 9 33 34 33 30 31 29 29 26 26 25 23 21 20 19 17 15 13 12 10 9 9 8 8 8 8 8 9 10 11 11 11 12 13 14 15 16 18 19
1 3 4 4 2 3 4 2 3 5 8 5 27 32 33 33 30 29 27 24 24 22 20 19 18 16 14 13 11 11 9 8 7 7 6 7 8 9 9 10 11 12 13 13 15 17 17 19 21
2 5 3 3 4 5 4 5 5 6 6 3 9 23 31 29 26 24 23 21 20 19 17 17 15 15 14 12 12 10 8 7 7 7 7 8 8 9 10 11 11 12 12 13 15 16 17 19 20
2 1 2 1 1 1 4 4 5 8 11 11 7 22 28 28 25 24 22 20 18 17 16 15 14 14 13 11 10 9 8 7 7 7 7 7 7 8 8 8 9 10 11 13 15 17 19 21 23
2 2 2 1 5 4 3 1 5 3 9 15 16 23 24 25 24 24 22 20 18 17 16 15 14 12 9 7 7 6 5 5 5 6 6 6 5 4 6 8 10 11 13 15 16 18 19 21 23
Wind_Direction
246 243 336 235 223 222 224 239 254 211 220 255 61 318 106 44 55 141 137 154 173 170 163 156 154 152 151 157 149 139 140 131 129 86 39 359 344 342 342 344 335 331 329 328 334 337 338 341 340
216 290 216 261 226 222 228 239 232 233 157 107 144 71 83 87 90 134 148 160 172 167 162 157 163 158 156 152 159 165 172 163 213 308 310 311 315 315 312 314 311 320 332 336 336 334 331 334 336
207 241 237 208 221 227 231 224 236 191 140 152 85 24 59 95 124 139 169 168 167 158 161 155 162 161 162 164 169 170 184 246 288 291 295 298 299 300 298 299 294 292 288 289 299 306 313 312 317
306 258 269 245 235 218 252 257 293 134 145 170 134 101 94 330 155 153 163 168 171 165 161 159 163 163 167 172 178 197 248 285 290 294 297 299 298 300 299 298 296 294 291 287 285 285 290 295 298
255 256 237 235 245 256 222 249 267 174 146 178 170 144 108 139 169 163 149 162 167 167 163 162 166 170 175 187 201 226 262 281 293 301 303 306 306 307 303 302 300 298 297 296 295 296 294 296 295
257 256 239 233 253 235 261 248 176 275 150 188 206 107 121 186 166 160 156 157 176 181 169 168 172 175 185 195 222 262 283 298 307 312 316 317 314 312 310 308 309 308 306 304 303 304 303 305 304
252 276 254 259 253 240 235 256 200 209 189 192 183 119 150 173 157 158 151 165 176 179 169 171 176 182 190 203 237 272 295 311 317 322 321 319 315 310 308 311 311 308 306 307 309 309 309 311 316
245 257 266 263 252 262 235 245 255 193 230 203 168 157 169 181 158 159 168 176 175 167 165 168 177 184 189 201 221 254 291 313 326 329 335 329 321 310 315 317 314 313 312 315 318 319 323 328 331
250 243 248 246 258 257 274 242 244 209 246 152 164 100 194 170 162 165 172 178 178 171 173 172 174 181 183 175 191 207 285 322 339 342 341 329 331 337 328 332 326 328 329 332 334 336 338 355 1
225 234 243 263 257 263 273 276 240 168 215 141 110 120 161 165 170 174 175 170 171 173 174 177 178 179 184 175 169 138 27 358 351 352 347 333 334 340 348 351 349 358 11 4 26 21 10 1 4
248 241 255 246 262 270 305 309 302 163 221 179 160 155 163 170 176 180 174 173 175 174 177 176 178 178 178 163 152 127 37 350 346 353 346 339 339 347 23 345 348 0 11 8 23 28 334 355 357
258 257 250 262 268 275 286 305 290 264 202 225 193 188 175 176 179 181 176 173 181 175 177 178 177 178 168 163 156 149 1 341 341 346 355 344 345 11 12 335 340 341 351 350 11 308 341 21 335
242 252 258 262 261 268 285 278 281 295 209 239 173 177 178 174 174 176 178 178 181 178 176 177 178 175 172 166 164 168 237 351 337 347 359 4 359 39 356 20 333 353 347 353 343 342 345 351 106
268 253 258 272 275 257 265 273 273 281 193 159 165 173 173 174 173 169 180 182 181 177 177 178 179 174 174 172 175 184 235 330 325 354 2 6 23 24 43 335 341 347 347 342 356 10 41 315 278
269 268 278 270 273 277 254 268 247 260 176 158 162 165 171 175 172 174 181 181 180 176 175 179 178 175 178 178 187 191 220 324 337 348 6 359 7 6 346 345 347 340 345 352 5 23 80 311 327
317 293 264 256 269 277 253 260 262 238 178 165 168 169 172 175 171 174 179 176 180 179 177 177 177 179 185 187 200 231 269 325 339 341 353 350 353 345 342 336 345 343 351 3 351 22 17 324 330
169 246 233 264 236 253 277 239 251 195 180 180 176 174 171 170 169 173 179 175 181 179 180 180 178 184 188 196 216 251 275 321 336 336 342 335 347 334 338 342 342 337 346 357 343 358 311 312 333
199 218 238 242 226 224 267 228 274 172 176 183 180 174 171 170 170 172 175 178 178 179 180 180 183 188 192 205 225 252 265 311 334 330 331 331 346 337 335 335 332 334 344 344 338 333 322 311 311
294 290 269 258 257 255 240 220 213 195 191 174 176 173 171 167 172 170 176 178 177 184 184 183 188 191 197 198 218 236 281 324 322 325 325 330 336 333 330 330 334 335 335 335 334 327 321 319 321
240 246 246 277 265 267 232 230 211 186 203 179 170 171 170 166 169 170 182 184 185 187 186 188 191 194 199 194 210 244 257 290 307 317 315 325 327 326 327 326 323 322 322 322 327 326 324 319 327
231 236 247 247 277 238 188 225 203 178 203 182 177 176 173 169 171 176 186 188 186 189 191 194 196 197 201 201 210 226 239 271 279 292 311 321 321 316 316 310 309 309 312 318 319 320 321 317 319
251 246 236 217 205 184 192 207 182 165 192 180 169 171 172 175 178 183 188 189 190 192 194 197 202 204 204 206 221 235 247 268 291 306 318 326 316 312 305 301 301 302 309 313 314 317 316 313 313
236 336 187 243 197 191 209 204 194 164 190 181 171 168 170 176 183 189 189 193 192 198 199 202 206 209 211 215 236 251 252 259 269 285 305 314 314 310 302 299 299 303 308 308 308 308 308 309 309
256 295 52 258 235 195 201 206 192 177 188 170 171 174 174 177 181 189 192 193 197 202 203 207 211 215 217 223 243 255 258 265 272 289 302 311 312 316 314 308 306 306 307 306 305 304 306 305 304
248 271 196 168 72 205 232 207 271 176 177 174 175 183 179 175 174 182 189 190 198 205 206 209 215 219 223 231 241 252 256 261 277 290 299 305 310 313 319 321 320 312 304 300 300 303 303 301 299
208 224 153 201 168 189 293 215 347 17 91 174 176 178 176 172 179 182 191 192 200 207 208 211 217 222 227 232 241 253 257 261 275 286 299 306 313 311 307 309 313 315 309 306 304 303 303 303 301
187 37 3 330 44 106 208 87 27 46 47 50 158 163 168 170 176 183 189 196 202 208 210 213 215 221 226 231 241 249 252 263 273 288 299 305 306 302 300 304 310 314 315 313 310 310 309 304 303
358 102 293 285 181 209 220 174 200 173 157 132 109 134 152 158 166 178 184 189 195 201 202 204 209 213 220 226 236 247 258 270 282 286 291 296 298 304 309 313 315 317 317 314 311 310 310 306 306
1 315 272 210 126 295 146 227 329 183 170 157 147 145 150 154 166 170 171 172 174 177 180 184 189 198 207 220 234 242 247 264 264 266 276 285 293 294 306 317 322 322 319 317 314 315 315 313 312
231 108 70 288 335 270 229 5 7 59 145 145 154 150 152 158 162 168 167 164 162 165 166 173 183 193 198 203 216 230 238 236 237 250 270 282 288 311 324 325 326 326 325 322 319 314 309 306 305
Height
1520 1522 1523 1525 1531 1521 1519 1508 1495 1493 1494 1492 1492 1493 1495 1501 1506 1525 1526 1527 1526 1529 1532 1535 1537 1539 1541 1543 1544 1545 1546 1547 1547 1548 1548 1548 1548 1548 1548 1548 1548 1548 1548 1548 1548 1548 1548 1548 1548
1520 1523 1524 1523 1526 1523 1513 1495 1496 1489 1489 1492 1495 1496 1498 1511 1512 1519 1525 1525 1527 1529 1531 1534 1537 1539 1541 1542 1544 1545 1546 1547 1547 1548 1548 1548 1548 1548 1548 1548 1548 1548 1548 1548 1547 1547 1547 1547 1547
1520 1522 1523 1519 1513 1514 1506 1489 1488 1485 1487 1492 1497 1499 1503 1512 1514 1517 1523 1525 1527 1528 1530 1533 1536 1538 1540 1542 1543 1544 1545 1546 1546 1547 1547 1547 1547 1547 1546 1546 1546 1546 1546 1546 1546 1546 1546 1546 1545
1523 1523 1522 1514 1505 1498 1496 1484 1480 1483 1490 1492 1496 1504 1509 1512 1514 1518 1521 1525 1527 1528 1530 1533 1536 1538 1540 1542 1543 1544 1545 1545 1545 1545 1545 1545 1545 1545 1545 1545 1545 1545 1545 1545 1545 1544 1544 1544 1544
1522 1520 1519 1508 1503 1495 1488 1483 1483 1483 1487 1492 1495 1505 1510 1512 1514 1518 1520 1524 1526 1528 1530 1533 1535 1537 1539 1541 1542 1543 1544 1544 1544 1544 1544 1544 1544 1544 1543 1543 1543 1543 1543 1543 1542 1542 1542 1542 1542
1523 1517 1511 1509 1502 1494 1485 1481 1483 1482 1485 1491 1495 1501 1511 1510 1513 1518 1522 1525 1527 1527 1530 1532 1535 1537 1539 1540 1542 1542 1543 1543 1543 1543 1543 1543 1543 1543 1542 1542 1542 1541 1541 1541 1541 1541 1540 1540 1540
1520 1518 1509 1502 1497 1495 1488 1481 1483 1483 1484 1488 1493 1501 1509 1510 1513 1518 1522 1523 1524 1527 1530 1532 1534 1536 1538 1539 1540 1541 1542 1542 1542 1543 1543 1543 1542 1542 1541 1541 1541 1541 1540 1540 1540 1540 1539 1539 1539
1518 1517 1510 1502 1499 1493 1485 1480 1481 1481 1484 1485 1489 1496 1505 1505 1511 1516 1519 1521 1524 1527 1529 1532 1534 1535 1537 1538 1539 1540 1541 1541 1541 1542 1542 1542 1541 1540 1541 1540 1540 1540 1540 1539 1539 1539 1539 1539 1538
1515 1514 1505 1503 1500 1493 1482 1481 1478 1480 1484 1485 1487 1491 1492 1500 1508 1512 1516 1521 1523 1526 1529 1531 1533 1534 1536 1538 1539 1540 1540 1540 1541 1541 1541 1540 1540 1540 1539 1539 1539 1539 1539 1539 1539 1539 1539 1538 1538
1512 1506 1501 1500 1497 1491 1482 1482 1478 1480 1483 1486 1487 1490 1495 1500 1505 1508 1513 1518 1522 1524 1528 1531 1533 1535 1536 1537 1538 1538 1539 1539 1539 1540 1539 1539 1539 1539 1538 1538 1538 1538 1538 1538 1538 1538 1538 1537 1537
1506 1502 1499 1497 1495 1490 1487 1479 1479 1475 1482 1484 1489 1489 1495 1501 1506 1508 1513 1517 1521 1522 1526 1530 1532 1534 1535 1536 1537 1538 1539 1539 1539 1539 1539 1538 1538 1538 1537 1537 1537 1537 1537 1537 1537 1537 1537 1537 1536
1505 1500 1500 1498 1493 1491 1490 1484 1479 1476 1476 1481 1484 1488 1493 1498 1503 1506 1511 1514 1518 1520 1525 1529 1532 1533 1534 1536 1537 1538 1538 1538 1538 1538 1538 1537 1537 1537 1537 1537 1537 1537 1536 1536 1536 1535 1535 1535 1535
1500 1497 1497 1495 1491 1491 1490 1485 1483 1476 1475 1480 1480 1486 1492 1498 1503 1508 1511 1513 1517 1520 1523 1527 1530 1533 1534 1535 1536 1537 1537 1538 1537 1537 1537 1536 1536 1536 1536 1536 1536 1536 1536 1536 1536 1535 1534 1534 1534
1495 1494 1497 1494 1491 1488 1488 1483 1483 1475 1473 1478 1479 1484 1492 1497 1501 1506 1510 1511 1515 1518 1521 1526 1529 1532 1533 1534 1535 1536 1537 1536 1537 1537 1536 1535 1535 1536 1536 1535 1535 1535 1535 1535 1535 1534 1534 1532 1532
1495 1495 1494 1491 1490 1487 1486 1480 1477 1477 1476 1478 1483 1485 1492 1498 1502 1504 1507 1510 1513 1517 1520 1524 1528 1531 1532 1534 1535 1535 1536 1535 1536 1536 1536 1535 1535 1535 1535 1535 1535 1535 1535 1534 1534 1533 1533 1531 1532
1495 1495 1496 1487 1490 1487 1486 1482 1474 1475 1476 1479 1482 1486 1491 1497 1501 1504 1507 1510 1513 1516 1519 1523 1526 1530 1532 1533 1533 1534 1535 1534 1535 1535 1535 1535 1534 1534 1534 1534 1534 1534 1534 1533 1533 1533 1532 1531 1531
1498 1497 1492 1488 1487 1491 1485 1482 1470 1469 1472 1477 1480 1484 1488 1494 1499 1503 1506 1509 1512 1515 1517 1522 1525 1528 1530 1532 1532 1533 1534 1534 1534 1534 1534 1534 1534 1533 1533 1533 1533 1533 1533 1532 1532 1532 1532 1530 1530
1490 1492 1487 1484 1483 1486 1484 1474 1468 1461 1465 1472 1477 1482 1485 1490 1496 1500 1505 1508 1511 1514 1517 1521 1524 1527 1528 1530 1531 1532 1533 1533 1533 1534 1533 1533 1533 1533 1532 1532 1533 1533 1532 1532 1532 1532 1531 1531 1530
1485 1485 1481 1474 1476 1490 1481 1469 1464 1463 1464 1467 1473 1479 1482 1488 1495 1498 1503 1506 1510 1512 1515 1519 1522 1525 1527 1527 1530 1530 1531 1532 1533 1533 1532 1532 1532 1532 1532 1532 1532 1532 1532 1531 1531 1531 1531 1530 1529
1483 1485 1477 1470 1471 1480 1469 1461 1457 1460 1461 1463 1468 1475 1480 1485 1491 1496 1500 1503 1507 1510 1514 1517 1520 1523 1525 1525 1528 1529 1531 1531 1531 1531 1531 1531 1531 1531 1531 1531 1531 1531 1530 1530 1530 1530 1530 1529 1529
1480 1478 1472 1471 1465 1467 1456 1463 1453 1455 1458 1460 1465 1472 1477 1481 1486 1491 1496 1501 1504 1508 1511 1515 1518 1521 1523 1524 1527 1528 1530 1530 1530 1530 1530 1530 1530 1530 1530 1530 1530 1530 1529 1529 1529 1529 1529 1529 1528
1472 1459 1461 1464 1459 1464 1449 1478 1456 1453 1456 1457 1461 1468 1474 1480 1486 1490 1493 1497 1501 1506 1510 1513 1516 1519 1521 1523 1525 1526 1528 1528 1529 1528 1528 1529 1529 1528 1528 1529 1529 1529 1528 1528 1528 1528 1528 1527 1526
1465 1448 1451 1455 1448 1451 1450 1466 1451 1449 1455 1455 1457 1464 1471 1476 1481 1485 1489 1495 1500 1503 1507 1511 1514 1517 1519 1521 1523 1524 1526 1527 1527 1527 1527 1527 1527 1527 1527 1527 1527 1527 1527 1527 1527 1526 1526 1526 1525
1454 1451 1452 1455 1450 1465 1444 1447 1448 1446 1444 1452 1456 1461 1467 1473 1479 1484 1488 1493 1497 1501 1505 1509 1512 1515 1517 1519 1521 1522 1524 1524 1525 1525 1525 1525 1525 1525 1525 1525 1525 1525 1524 1524 1524 1524 1524 1523 1522
1456 1458 1458 1465 1472 1467 1439 1449 1435 1427 1435 1442 1451 1458 1464 1469 1475 1480 1484 1489 1494 1498 1502 1506 1510 1512 1515 1517 1519 1520 1522 1522 1522 1523 1523 1523 1523 1523 1523 1523 1523 1522 1522 1522 1522 1521 1520 1519 1518
1449 1447 1461 1460 1463 1462 1447 1452 1438 1433 1429 1433 1442 1451 1460 1466 1472 1478 1482 1487 1491 1495 1499 1503 1507 1509 1512 1515 1517 1518 1519 1520 1520 1521 1521 1522 1521 1522 1522 1521 1520 1519 1519 1519 1518 1518 1517 1516 1515
1444 1455 1447 1453 1449 1460 1455 1441 1435 1434 1433 1433 1440 1449 1457 1463 1469 1475 1480 1485 1488 1492 1497 1500 1504 1507 1510 1512 1514 1516 1517 1517 1518 1519 1520 1520 1520 1520 1519 1519 1518 1517 1516 1516 1515 1514 1513 1512 1510
1447 1451 1461 1458 1460 1453 1455 1438 1450 1441 1440 1440 1441 1446 1454 1461 1468 1473 1477 1481 1486 1490 1494 1498 1502 1505 1508 1509 1511 1513 1514 1514 1515 1516 1517 1517 1517 1517 1517 1516 1515 1515 1514 1513 1511 1510 1509 1507 1506
1451 1453 1450 1450 1449 1458 1451 1445 1432 1434 1435 1441 1445 1449 1453 1460 1466 1472 1476 1480 1484 1489 1492 1496 1499 1502 1505 1507 1509 1511 1512 1512 1513 1514 1514 1515 1515 1515 1515 1514 1513 1512 1511 1510 1509 1507 1505 1503 1501
1452 1449 1453 1458 1455 1456 1440 1448 1431 1430 1434 1439 1445 1450 1456 1462 1468 1471 1475 1479 1483 1488 1491 1494 1498 1501 1504 1506 1508 1509 1510 1510 1511 1512 1513 1513 1513 1513 1512 1512 1511 1511 1510 1508 1507 1505 1503 1500 1497